TimeEST,TemperatureF,Dew PointF,Humidity,Sea Level PressureIn,VisibilityMPH,Wind Direction,Wind SpeedMPH,Gust SpeedMPH,PrecipitationIn,Events,Conditions,WindDirDegrees,DateUTC
12:54 AM,33.1,21.9,64,30.11,10.0,ENE,9.2,19.6,N/A,,Overcast,70,2013-03-07 05:54:00
1:54 AM,33.1,21.9,64,30.11,10.0,NNE,5.8,-,N/A,,Overcast,30,2013-03-07 06:54:00
2:37 AM,33.8,21.2,60,30.07,10.0,North,9.2,-,N/A,,Overcast,360,2013-03-07 07:37:00
2:51 AM,32.0,23.0,69,30.06,10.0,NNE,8.1,-,N/A,,Overcast,20,2013-03-07 07:51:00
2:54 AM,32.0,21.9,66,30.09,10.0,NE,5.8,-,N/A,,Overcast,40,2013-03-07 07:54:00
3:54 AM,32.0,21.9,66,30.09,10.0,NNE,8.1,-,N/A,,Overcast,20,2013-03-07 08:54:00
4:54 AM,32.0,21.9,66,30.09,10.0,North,8.1,-,N/A,,Overcast,10,2013-03-07 09:54:00
5:18 AM,32.0,21.2,64,30.07,10.0,North,8.1,-,N/A,,Overcast,10,2013-03-07 10:18:00
5:54 AM,32.0,19.9,61,30.10,10.0,NNE,5.8,-,N/A,,Overcast,30,2013-03-07 10:54:00
6:54 AM,32.0,19.9,61,30.11,10.0,North,6.9,-,N/A,,Overcast,10,2013-03-07 11:54:00
7:54 AM,33.1,19.9,59,30.12,10.0,North,6.9,-,N/A,,Overcast,10,2013-03-07 12:54:00
8:40 AM,32.0,23.0,69,30.09,2.0,NNE,8.1,-,0.00,Snow,Light Snow,30,2013-03-07 13:40:00
8:49 AM,30.2,23.0,75,30.08,1.5,North,6.9,-,0.01,Snow,Light Snow,10,2013-03-07 13:49:00
8:54 AM,30.9,24.1,76,30.11,1.5,North,6.9,-,0.01,Snow,Light Snow,10,2013-03-07 13:54:00
9:04 AM,30.2,24.8,80,30.08,3.0,North,4.6,-,0.00,Snow,Light Snow,350,2013-03-07 14:04:00
9:52 AM,32.0,24.8,75,30.08,2.0,NNW,5.8,-,0.00,Snow,Light Snow,340,2013-03-07 14:52:00
9:54 AM,32.0,24.1,73,30.11,2.0,NW,4.6,-,0.00,Snow,Light Snow,320,2013-03-07 14:54:00
10:01 AM,32.0,24.8,75,30.08,1.8,NNW,8.1,-,0.00,Snow,Light Snow,340,2013-03-07 15:01:00
10:43 AM,33.8,24.8,70,30.08,3.0,North,9.2,-,0.00,Snow,Light Snow,350,2013-03-07 15:43:00
10:54 AM,33.1,25.0,72,30.11,5.0,NW,8.1,-,0.00,Snow,Light Snow,320,2013-03-07 15:54:00
11:47 AM,33.8,26.6,75,30.09,1.8,NNW,6.9,-,0.00,Snow,Light Snow,330,2013-03-07 16:47:00
11:54 AM,33.1,26.1,75,30.11,2.0,NW,8.1,-,0.00,Snow,Light Snow,320,2013-03-07 16:54:00
12:05 PM,33.8,26.6,75,30.08,5.0,NNW,8.1,-,0.00,Snow,Light Snow,330,2013-03-07 17:05:00
12:54 PM,34.0,26.1,73,30.09,6.0,NNW,9.2,16.1,0.00,,Haze,330,2013-03-07 17:54:00
1:54 PM,34.0,26.1,73,30.09,10.0,NNW,8.1,-,N/A,,Overcast,330,2013-03-07 18:54:00
2:45 PM,33.8,26.6,75,30.07,1.8,NNW,9.2,18.4,0.00,Snow,Light Snow,340,2013-03-07 19:45:00
2:54 PM,33.1,27.0,78,30.10,1.5,NNW,8.1,-,0.00,Snow,Light Snow,330,2013-03-07 19:54:00
3:23 PM,33.8,26.6,75,30.08,2.5,NNW,5.8,16.1,0.00,Snow,Light Snow,340,2013-03-07 20:23:00
3:37 PM,33.8,26.6,75,30.08,3.0,NNW,9.2,16.1,0.00,Snow,Light Snow,330,2013-03-07 20:37:00
3:51 PM,33.8,26.6,75,30.08,2.5,NNW,6.9,-,0.00,Snow,Light Snow,330,2013-03-07 20:51:00
3:54 PM,33.1,27.0,78,30.11,2.0,NW,6.9,-,0.00,Snow,Light Snow,320,2013-03-07 20:54:00
4:06 PM,33.8,26.6,75,30.08,1.5,Variable,3.5,-,0.01,Snow,Light Snow,0,2013-03-07 21:06:00
4:54 PM,30.9,27.0,85,30.12,0.8,NNW,5.8,-,0.01,Snow,Light Snow,330,2013-03-07 21:54:00
5:12 PM,30.2,26.6,86,30.09,0.8,NNW,8.1,-,0.01,Snow,Light Snow,330,2013-03-07 22:12:00
5:28 PM,30.2,26.6,86,30.10,1.0,NNW,8.1,-,0.01,Snow,Light Snow,330,2013-03-07 22:28:00
5:54 PM,30.0,26.1,85,30.13,1.8,NW,5.8,-,0.01,Snow,Light Snow,320,2013-03-07 22:54:00
6:46 PM,30.2,26.6,86,30.11,1.2,NW,5.8,-,0.02,Snow,Light Snow,310,2013-03-07 23:46:00
6:54 PM,30.0,27.0,88,30.14,1.5,NW,5.8,-,0.02,Snow,Light Snow,320,2013-03-07 23:54:00
7:23 PM,30.2,26.6,86,30.10,2.0,NNW,6.9,-,0.01,Snow,Light Snow,330,2013-03-08 00:23:00
7:45 PM,30.2,26.6,86,30.10,3.0,NNW,5.8,-,0.01,Snow,Light Snow,330,2013-03-08 00:45:00
7:54 PM,30.0,26.1,85,30.13,3.0,NNW,5.8,-,0.01,Snow,Light Snow,330,2013-03-08 00:54:00
8:28 PM,30.2,24.8,80,30.10,2.0,NNW,5.8,-,0.00,Snow,Light Snow,330,2013-03-08 01:28:00
8:44 PM,30.2,24.8,80,30.10,5.0,NNW,5.8,-,0.00,Snow,Light Snow,340,2013-03-08 01:44:00
8:51 PM,30.2,24.8,80,30.09,8.0,NNW,5.8,-,0.00,,Overcast,340,2013-03-08 01:51:00
8:54 PM,30.0,25.0,82,30.12,9.0,NNW,3.5,-,0.00,,Overcast,330,2013-03-08 01:54:00
9:20 PM,30.2,24.8,80,30.09,3.0,Variable,5.8,-,0.01,Snow,Light Snow,0,2013-03-08 02:20:00
9:27 PM,28.4,24.8,86,30.09,1.8,NNW,5.8,-,0.01,Snow,Light Snow,330,2013-03-08 02:27:00
9:43 PM,28.4,24.8,86,30.08,1.2,NW,3.5,-,0.01,Snow,Light Snow,320,2013-03-08 02:43:00
9:54 PM,28.9,25.0,85,30.11,1.5,NW,3.5,-,0.02,Snow,Light Snow,320,2013-03-08 02:54:00
10:12 PM,28.4,24.8,86,30.08,3.0,Calm,Calm,-,0.00,Snow,Light Snow,0,2013-03-08 03:12:00
10:19 PM,28.4,24.8,86,30.07,4.0,NW,5.8,-,0.00,Snow,Light Snow,320,2013-03-08 03:19:00
10:29 PM,28.4,24.8,86,30.07,4.0,Calm,Calm,-,0.00,Snow,Light Snow,0,2013-03-08 03:29:00
10:45 PM,28.4,24.8,86,30.07,2.0,NW,4.6,-,0.00,Snow,Light Snow,320,2013-03-08 03:45:00
10:54 PM,28.9,25.0,85,30.10,2.5,NNW,4.6,-,0.00,Snow,Light Snow,330,2013-03-08 03:54:00
11:22 PM,28.4,24.8,86,30.06,1.8,NW,5.8,-,0.01,Snow,Light Snow,320,2013-03-08 04:22:00
11:30 PM,28.4,24.8,86,30.06,2.0,NNW,4.6,-,0.01,Snow,Light Snow,330,2013-03-08 04:30:00
11:51 PM,28.4,24.8,86,30.06,1.8,NW,4.6,-,0.01,Snow,Light Snow,310,2013-03-08 04:51:00
11:54 PM,28.0,25.0,88,30.09,1.8,NW,4.6,-,0.01,Snow,Light Snow,310,2013-03-08 04:54:00